Volver al catálogo

STARLINK-4457

ActivoComunicacionesSSO
NORAD 53663·PAYLOAD·🇺🇸 United States

Lanzado Aug 31, 2022 desde Vandenberg Space Force Base

Loading…

Próximos Pases (próximas 24 horas)

TLE

ActualizadoSource: CelesTrak SupGP

Época: Sep 15, 2026, 02:16 UTC

1 53663C 22105R   26258.09493056  .00067588  00000+0  20981-2 0  2585
2 53663  97.2839 134.9145 0002286  93.6698 133.1078 15.33403621    11

Sigue STARLINK-4457 en tiempo real con AllMySat

Download on the App Store